Location: Newark
(21.1700°N, 79.6500°E)
Time: 10:54:06
(UTC+00:00)

N. Korean satellite - Pass Details

Date: 17 December 2019
Orbit: 454 x 508 km, 97.2° (Epoch: 18 January)

Event Time Altitude Azimuth Distance (km) Brightness Sun altitude
Rises 12:30:22 0° 191° (S) 2,597 10.8 -6.7°
Reaches altitude 10° 12:32:42 10° 204° (SSW) 1,713 10.1 -7.2°
Maximum altitude 12:35:48 25° 262° (W) 1,034 9.3 -7.9°
Drops below altitude 10° 12:38:55 10° 319° (NW) 1,708 9.6 -8.6°
Sets 12:41:14 0° 333° (NNW) 2,587 10.3 -9.1°
